Tracking 29892 objects as of 21-Nov-2024
HD Live streaming from Space Station
objects crossing your sky now

ARIANE 2 DEB

Track ARIANE 2 DEB now!


NORAD ID: 27044
Int'l Code: 1989-006Z
Perigee: 570.6 km
Apogee: 34,527.5 km
Inclination: 7.8 °
Period: 613.6 minutes
Semi major axis: 23920 km
RCS: 0.0317 m2 (small)
Launch date: January 27, 1989
Source: France (FR)
Launch site: FRENCH GUIANA (FRGUI)

Note: This is SATELLITE DEBRIS
Your satellite tracking list
Your tracking list is empty




NASA's NSSDC Master Catalog

Two Line Element Set (TLE):
1 27044U 89006Z   24324.23905489  .00000406  00000-0  53609-2 0  9990
2 27044   7.7823 240.5198 7097996 119.3757 328.1071  2.34671146194915
Source of the keplerian elements: AFSPC